Weather History for Tehachapi, CA

Change the Weather History Date:

Tuesday, December 16, 2014

  Actual Average Record
Temperature  
Mean Temperature 40 °F -  
Max Temperature 48 °F 51 °F 68 °F (2013)
Min Temperature 33 °F 31 °F 23 °F (2011)
Degree Days  
Heating Degree Days 24    
Moisture  
Dew Point 36 °F    
Average Humidity 83    
Maximum Humidity 100    
Minimum Humidity 62    
Precipitation  
Precipitation 0.00 in - - ()
Sea Level Pressure  
Sea Level Pressure 29.98 in    
Wind  
Wind Speed 4 mph (ESE)    
Max Wind Speed 14 mph    
Max Gust Speed -    
Visibility 9 miles    
Events      
Averages and records for this station are not official NWS values.
T = Trace of Precipitation, MM = Missing Value Source: NWS Daily Summary

Daily Weather History Graph

Daily Weather History Graph

Search for Another Location

Airport:

Trip Planner

Search our weather history database for the weather conditions in past years. The results will help you decide how hot, cold, wet, or windy it might be!

Date:

Astronomy

Dec. 16, 2014 Rise Set
Actual Time 6:55 AM PST 4:43 PM PST
Civil Twilight 6:27 AM PST 5:11 PM PST
Nautical Twilight 5:55 AM PST 5:43 PM PST
Astronomical Twilight 5:24 AM PST 6:14 PM PST
Moon 1:25 AM PST (12/16) 1:07 PM PST (12/16)
Length of Visible Light 10h 44m
Length of Day
9h 48m
Waning Crescent, 29% of the Moon is Illuminated
Dec 16
Waning Crescent
Dec 21
New
Dec 28
First Quarter
Jan 4
Full
Jan 13
Last Quarter

Hourly Weather History & Observations

Time (PST) Temp. Windchill Dew Point Humidity Pressure Visibility Wind Dir Wind Speed Gust Speed Precip Events Conditions
12:15 AM 39.2 °F 33.6 °F 33.8 °F 81% 30.00 in 10.0 mi ESE 8.1 mph - N/A   Overcast
12:35 AM 41.0 °F 33.5 °F 35.6 °F 81% 29.99 in 10.0 mi ESE 13.8 mph - N/A   Overcast
12:55 AM 41.0 °F 37.1 °F 35.6 °F 81% 29.99 in 10.0 mi SSE 5.8 mph - N/A   Overcast
1:15 AM 39.2 °F - 35.6 °F 87% 29.99 in 10.0 mi Calm Calm - N/A   Overcast
1:35 AM 39.2 °F - 35.6 °F 87% 29.99 in 10.0 mi Calm Calm - N/A   Overcast
1:55 AM 39.2 °F - 35.6 °F 87% 29.99 in 10.0 mi Calm Calm - N/A   Mostly Cloudy
2:15 AM 37.4 °F - 33.8 °F 87% 29.99 in 10.0 mi Calm Calm - N/A   Scattered Clouds
2:35 AM 39.2 °F 33.6 °F 32.0 °F 75% 29.99 in 10.0 mi East 8.1 mph - N/A   Mostly Cloudy
2:55 AM 41.0 °F - 32.0 °F 70% 29.98 in 10.0 mi Calm Calm - N/A   Overcast
3:15 AM 37.4 °F - 33.8 °F 87% 29.98 in 10.0 mi Calm Calm - N/A   Overcast
3:35 AM 37.4 °F - 33.8 °F 87% 29.98 in 10.0 mi Calm Calm - N/A   Overcast
3:55 AM 39.2 °F 35.9 °F 33.8 °F 81% 29.98 in 10.0 mi ESE 4.6 mph - N/A   Overcast
4:15 AM 41.0 °F 35.8 °F 33.8 °F 76% 29.98 in 10.0 mi East 8.1 mph - N/A   Overcast
4:35 AM 41.0 °F - 33.8 °F 76% 29.98 in 10.0 mi Calm Calm - N/A   Overcast
4:55 AM 41.0 °F - 32.0 °F 70% 29.98 in 10.0 mi Calm Calm - N/A   Scattered Clouds
5:15 AM 37.4 °F - 32.0 °F 81% 29.99 in 10.0 mi Calm Calm - N/A   Scattered Clouds
5:35 AM 37.4 °F 33.8 °F 32.0 °F 81% 29.99 in 10.0 mi SE 4.6 mph - N/A   Mostly Cloudy
5:55 AM 37.4 °F - 33.8 °F 87% 29.99 in 10.0 mi Calm Calm - N/A   Overcast
6:15 AM 37.4 °F 34.9 °F 32.0 °F 81% 29.99 in 10.0 mi East 3.5 mph - N/A   Overcast
6:35 AM 35.6 °F 31.7 °F 32.0 °F 87% 30.00 in 10.0 mi SE 4.6 mph - N/A   Mostly Cloudy
6:55 AM 35.6 °F 31.7 °F 32.0 °F 87% 30.00 in 10.0 mi ESE 4.6 mph - N/A   Partly Cloudy
7:15 AM 33.8 °F 28.6 °F 32.0 °F 93% 30.01 in 10.0 mi ESE 5.8 mph - N/A   Partly Cloudy
7:35 AM 35.6 °F - 32.0 °F 87% 30.01 in 10.0 mi Calm Calm - N/A   Clear
7:55 AM 35.6 °F - 32.0 °F 87% 30.01 in 10.0 mi Calm Calm - N/A   Clear
8:15 AM 35.6 °F - 33.8 °F 93% 30.02 in 10.0 mi Calm Calm - N/A   Partly Cloudy
8:35 AM 37.4 °F 34.9 °F 35.6 °F 93% 30.03 in 10.0 mi ESE 3.5 mph - N/A   Mostly Cloudy
8:55 AM 39.2 °F 37.0 °F 35.6 °F 87% 30.03 in 10.0 mi East 3.5 mph - N/A   Mostly Cloudy
9:15 AM - - - N/A% - - North - - N/A   Unknown
9:35 AM 42.8 °F - 35.6 °F 76% 30.03 in 10.0 mi Calm Calm - N/A   Unknown
9:55 AM 44.6 °F - 35.6 °F 71% 30.03 in 10.0 mi Calm Calm - N/A   Scattered Clouds
10:15 AM 44.6 °F 43.1 °F 35.6 °F 71% 30.03 in 10.0 mi NNW 3.5 mph - N/A   Overcast
10:35 AM 44.6 °F - 35.6 °F 71% 30.03 in 10.0 mi Calm Calm - N/A   Scattered Clouds
10:55 AM 44.6 °F - 35.6 °F 71% 30.02 in 10.0 mi Calm Calm - N/A   Clear
11:15 AM - - - N/A% - - North - - N/A   Unknown
11:35 AM 46.4 °F 44.3 °F 37.4 °F 71% 30.00 in 10.0 mi SE 4.6 mph - N/A   Unknown
11:55 AM - - - N/A% 29.98 in 10.0 mi East 3.5 mph - N/A   Unknown
12:15 PM 46.4 °F - 37.4 °F 71% 29.98 in 10.0 mi Calm Calm - N/A   Unknown
12:35 PM - - - N/A% - - North - - N/A   Unknown
12:55 PM - - - N/A% - - North - - N/A   Unknown
1:15 PM 48.2 °F - 35.6 °F 62% 29.96 in 10.0 mi Calm Calm - N/A   Unknown
1:35 PM 48.2 °F - 35.6 °F 62% 29.96 in 10.0 mi Calm Calm - N/A   Mostly Cloudy
1:55 PM 48.2 °F - 37.4 °F 66% 29.96 in 10.0 mi NNW 4.6 mph - N/A   Partly Cloudy
2:15 PM 48.2 °F - 39.2 °F 71% 29.96 in 10.0 mi NW 5.8 mph - N/A   Clear
2:35 PM 48.2 °F - 37.4 °F 66% 29.96 in 10.0 mi NNW 3.5 mph - N/A   Partly Cloudy
2:55 PM 48.2 °F - 41.0 °F 76% 29.96 in 10.0 mi SSE 9.2 mph - N/A   Scattered Clouds
3:15 PM 46.4 °F 41.9 °F 39.2 °F 76% 29.96 in 10.0 mi SE 9.2 mph - N/A   Clear
3:35 PM 46.4 °F 41.9 °F 39.2 °F 76% 29.96 in 9.0 mi SE 9.2 mph - N/A   Clear
3:55 PM 46.4 °F 42.4 °F 39.2 °F 76% 29.96 in 10.0 mi SE 8.1 mph - N/A   Clear
4:15 PM 44.6 °F 41.4 °F 39.2 °F 81% 29.96 in 10.0 mi ESE 5.8 mph - N/A   Clear
4:35 PM 44.6 °F 39.7 °F 39.2 °F 81% 29.96 in 9.0 mi SE 9.2 mph - N/A   Clear
4:55 PM 42.8 °F 38.6 °F 39.2 °F 87% 29.96 in 8.0 mi East 6.9 mph - N/A   Clear
5:15 PM 41.0 °F 36.4 °F 39.2 °F 93% 29.97 in 9.0 mi ESE 6.9 mph - N/A   Clear
5:35 PM 41.0 °F 36.4 °F 37.4 °F 87% 29.96 in 8.0 mi East 6.9 mph - N/A   Clear
5:55 PM 41.0 °F 35.2 °F 39.2 °F 93% 29.97 in 6.0 mi East 9.2 mph - N/A   Mostly Cloudy
6:15 PM 41.0 °F 36.4 °F 39.2 °F 93% 29.98 in 7.0 mi East 6.9 mph - N/A   Overcast
6:35 PM 42.8 °F 38.6 °F 39.2 °F 87% 29.98 in 9.0 mi East 6.9 mph - N/A   Overcast
6:55 PM 41.0 °F 38.0 °F 39.2 °F 93% 29.98 in 10.0 mi SE 4.6 mph - N/A   Overcast
7:15 PM 41.0 °F 38.0 °F 37.4 °F 87% 29.98 in 7.0 mi SSE 4.6 mph - N/A   Mostly Cloudy
7:35 PM 41.0 °F 35.8 °F 37.4 °F 87% 29.98 in 9.0 mi ESE 8.1 mph - N/A   Scattered Clouds
7:55 PM 41.0 °F 33.9 °F 37.4 °F 87% 29.97 in 5.0 mi ESE 12.7 mph - N/A   Mist
8:15 PM - - - N/A% - - North - - N/A   Unknown
8:35 PM - - - N/A% - - North - - N/A   Unknown
8:55 PM 39.2 °F 35.9 °F 37.4 °F 93% 29.97 in 7.0 mi South 4.6 mph - N/A   Unknown
9:15 PM - - - N/A% 29.97 in - SSE 4.6 mph - N/A   Unknown
9:35 PM - - - N/A% - 6.0 mi North - - N/A   Haze
9:55 PM 39.2 °F 35.9 °F 37.4 °F 93% 29.98 in 5.0 mi WSW 4.6 mph - N/A   Mist
10:15 PM 39.2 °F 37.0 °F 37.4 °F 93% 29.99 in 4.0 mi SW 3.5 mph - N/A   Mostly Cloudy
10:35 PM 37.4 °F 34.9 °F 37.4 °F 100% 29.98 in 3.0 mi ENE 3.5 mph - N/A   Partly Cloudy
10:55 PM 37.4 °F - 37.4 °F 100% 29.97 in 4.0 mi Calm Calm - N/A   Clear
11:15 PM 37.4 °F 33.8 °F 37.4 °F 100% 29.97 in 5.0 mi SE 4.6 mph - N/A   Mostly Cloudy
11:35 PM 37.4 °F - 37.4 °F 100% 29.97 in 5.0 mi Calm Calm - N/A   Mostly Cloudy
11:55 PM 37.4 °F - 37.4 °F 100% 29.97 in 5.0 mi Calm Calm - N/A   Mostly Cloudy